Regional Weather Roundup
Issued by NWS

Home | Current Version | Previous Version | Graphics & Text | Print | Product List | Glossary Off
Versions: 1 2 3 4 5 6 7 8 9 10 11 12 13 14 15 16 17 18 19 20 21 22 23 24 25 26 27 28 29 30 31 32 33 34 35 36 37 38 39 40 41 42 43 44 45 46 47 48 49 50

000
ASUS43 KMKX 040621
RWRWI

WISCONSIN REGIONAL WEATHER ROUNDUP
NATIONAL WEATHER SERVICE MILWAUKEE/SULLIVAN WI
100 AM CDT MON MAY 04 2015

NOTE: "FAIR" INDICATES FEW OR NO CLOUDS BELOW 12,000 FEET WITH NO
SIGNIFICANT WEATHER AND/OR OBSTRUCTIONS TO VISIBILITY.

WIZ001-002-006>008-014>016-023>028-040700-
NORTHWEST WISCONSIN

CITY           SKY/WX    TMP DP  RH WIND       PRES   REMARKS
SUPERIOR ARPT  PTCLDY    54  35  47 N14G22    29.97R
6HR MIN TEMP:  46; 6HR MAX TEMP:  59;

ASHLAND        CLOUDY    51  44  77 NW6       29.95R
6HR MIN TEMP:  49; 6HR MAX TEMP:  65; 6HR PCP:  0.02;

HAYWARD        CLOUDY    47  44  90 CALM      29.95R
6HR MIN TEMP:  47; 6HR MAX TEMP:  64; 6HR PCP: TRACE;

SIREN          PTCLDY    44  41  88 CALM      29.97R
6HR MIN TEMP:  44; 6HR MAX TEMP:  64;

CUMBERLAND     CLOUDY    50  45  81 NW3       29.96R
RICE LAKE      CLOUDY    52  45  75 CALM      29.97R
6HR MIN TEMP:  51; 6HR MAX TEMP:  65;

CHETEK         CLOUDY    54  51  89 NW3       29.95R
6HR MIN TEMP:  53; 6HR MAX TEMP:  63; 6HR PCP:  0.07;

LADYSMITH      CLOUDY    53  50  90 NW6       29.95R
6HR MIN TEMP:  52; 6HR MAX TEMP:  68; 6HR PCP:  0.14;

EAU CLAIRE     CLOUDY    55  52  89 CALM      29.92R
6HR MIN TEMP:  54; 6HR MAX TEMP:  75; 6HR PCP:  1.06;

MENOMONIE      CLOUDY    57  53  85 W3        29.93R
6HR MIN TEMP:  57; 6HR MAX TEMP:  62; 6HR PCP:  0.30;

NEW RICHMOND   MOCLDY    52  44  74 N3        29.97R
6HR MIN TEMP:  52; 6HR MAX TEMP:  62; 6HR PCP:  0.01;

OSCEOLA        PTCLDY    50  47  90 CALM      30.00R
6HR MIN TEMP:  50; 6HR MAX TEMP:  67;

$$

WIZ003>005-009-010-017-018-040700-
NORTH CENTRAL WISCONSIN

CITY           SKY/WX    TMP DP  RH WIND       PRES   REMARKS
MANITOWISH WTR CLOUDY    50  48  92 CALM      29.93R
6HR MIN TEMP:  50; 6HR MAX TEMP:  64;

ARBOR VITAE    CLOUDY    52  49  90 N5        29.93R
6HR MIN TEMP:  52; 6HR MAX TEMP:  63;

WOODRUFF       CLOUDY    52  49  90 N5        29.93R
6HR MIN TEMP:  52; 6HR MAX TEMP:  63;

RHINELANDER    CLOUDY    53  50  89 CALM      29.90F
6HR MIN TEMP:  52; 6HR MAX TEMP:  67; 6HR PCP:  0.39;

EAGLE RIVER    CLOUDY    54  51  89 NE3       29.91S
6HR MIN TEMP:  53; 6HR MAX TEMP:  61; 6HR PCP:  0.04;

LAND O LAKES   CLOUDY    52  51  95 CALM      29.93S
6HR MIN TEMP:  52; 6HR MAX TEMP:  63; 6HR PCP:  0.01;

PHILLIPS       PTCLDY    51  49  95 NW5       29.93R
6HR MIN TEMP:  50; 6HR MAX TEMP:  67; 6HR PCP:  0.10;

TOMAHAWK       CLOUDY    50  49  96 CALM      29.91F FOG
6HR MIN TEMP:  50; 6HR MAX TEMP:  73;

MEDFORD        CLOUDY    54  52  94 N6        29.90R
6HR MIN TEMP:  54; 6HR MAX TEMP:  73; 6HR PCP:  0.14;

MERRILL        CLOUDY    54  53  97 N7        29.89S
6HR MIN TEMP:  54; 6HR MAX TEMP:  74; 6HR PCP:  0.30;

$$

WIZ029-030-035-036-043>047-040700-
CENTRAL WISCONSIN

CITY           SKY/WX    TMP DP  RH WIND       PRES   REMARKS
WAUSAU         CLOUDY    57  55  93 NW3       29.87S
6HR MIN TEMP:  57; 6HR MAX TEMP:  75; 6HR PCP:  0.29;

MOSINEE        CLOUDY    55  54  94 CALM      29.89R
MARSHFIELD     CLOUDY    58  50  76 E3        29.88F
6HR MIN TEMP:  58; 6HR MAX TEMP:  75; 6HR PCP:  0.49;

STEVENS POINT  CLOUDY    56  55  97 E5        29.88F
6HR MIN TEMP:  55; 6HR MAX TEMP:  74; 6HR PCP:  0.11;

WAUPACA        RAIN      61  58  91 NE3       29.90F
6HR MIN TEMP:  61; 6HR MAX TEMP:  78; 6HR PCP:  0.38;

WAUTOMA        LGT RAIN  59  59 100 SE5       29.92F FOG
6HR MIN TEMP:  59; 6HR MAX TEMP:  75; 6HR PCP:  0.26;

WISC RAPIDS    LGT RAIN  58  55  90 SE7       29.88F
6HR MIN TEMP:  58; 6HR MAX TEMP:  76; 6HR PCP:  0.41;

CAMP DOUGLAS   LGT RAIN  57  57 100 S7        29.83F
6HR MIN TEMP:  58; 6HR MAX TEMP:  75; 6HR PCP:  0.46;

$$

WIZ011>013-019>022-031-037>040-048>050-040700-
NORTHEAST WISCONSIN

CITY           SKY/WX    TMP DP  RH WIND       PRES   REMARKS
ANTIGO         CLOUDY    55  54  95 N7        29.88F
SHAWANO        CLOUDY    61  58  89 NE6       29.87F
6HR MIN TEMP:  61; 6HR MAX TEMP:  79; 6HR PCP:  0.13;

OCONTO         CLOUDY    59  58  96 N5        29.88F
6HR MIN TEMP:  59; 6HR MAX TEMP:  77; 6HR PCP:  0.01;

STURGEON BAY   CLOUDY    59  54  82 SW8       29.92S
6HR MIN TEMP:  57; 6HR MAX TEMP:  70;

GREEN BAY      CLOUDY    61  57  87 NE9       29.89F
6HR MIN TEMP:  61; 6HR MAX TEMP:  75; 6HR PCP:  0.05;

MANITOWOC      LGT RAIN  58  53  84 S5        29.89R
6HR MIN TEMP:  53; 6HR MAX TEMP:  75; 6HR PCP: TRACE;

APPLETON       CLOUDY    59  54  82 NE5       29.91R
CLINTONVILLE   RAIN      57  55  94 SE7       29.86F
OSHKOSH        RAIN      62  57  83 N15       29.89R
6HR MIN TEMP:  62; 6HR MAX TEMP:  72; 6HR PCP:  0.04;

$$

WIZ032>034-041-042-053>061-040700-
SOUTHWEST WISCONSIN

CITY           SKY/WX    TMP DP  RH WIND       PRES   REMARKS
LA CROSSE      CLOUDY    61  57  87 S5        29.88R
6HR MIN TEMP:  60; 6HR MAX TEMP:  81; 6HR PCP:  0.82;

SPARTA         CLOUDY    59  57  95 CALM      29.86R
6HR MIN TEMP:  59; 6HR MAX TEMP:  77; 6HR PCP:  0.69;

VIROQUA        CLOUDY    57  57 100 SE12      29.88F
6HR MIN TEMP:  57; 6HR MAX TEMP:  73; 6HR PCP:  1.07;

BOSCOBEL       CLOUDY    60  57  89 N5        29.91F
6HR MIN TEMP:  59; 6HR MAX TEMP:  76; 6HR PCP:  0.51;

PRAIRIE DU CHI LGT RAIN  57  56  95 SE3       29.89F
6HR MIN TEMP:  57; 6HR MAX TEMP:  76; 6HR PCP:  0.24;

PLATTEVILLE    CLOUDY    58  56  91 CALM      29.95F
6HR MIN TEMP:  58; 6HR MAX TEMP:  72; 6HR PCP:  0.21;

$$

WIZ056-057-062-063-064-067-068-040700-
SOUTH CENTRAL WISCONSIN

CITY           SKY/WX    TMP DP  RH WIND       PRES   REMARKS
REEDSBURG      RAIN      57  57  98 S5        29.94S
6HR MIN TEMP:  57; 6HR MAX TEMP:  72; 6HR PCP:  0.52;

BARABOO/DELLS  NOT AVBL
LONE ROCK      RAIN      59  57  93 SE7       29.93F
6HR MIN TEMP:  59; 6HR MAX TEMP:  69; 6HR PCP:  0.48;

MINERAL POINT  RAIN      59  57  94 NE7       29.94F
MADISON        TSTM      59  57  93 W6        29.98R FOG
6HR MIN TEMP:  59; 6HR MAX TEMP:  70; 6HR PCP:  0.20;

MIDDLETON      CLOUDY    60  56  89 NW5       29.97R
6HR MIN TEMP:  60; 6HR MAX TEMP:  72; 6HR PCP:  0.22;

WATERTOWN      CLOUDY    63  58  84 NW10      29.90R
6HR MIN TEMP:  60; 6HR MAX TEMP:  68;

MONROE         CLOUDY    59  55  88 N21G29    29.95R
JANESVILLE     CLOUDY    64  54  68 S12         N/A
$$

WIZ051-052-058>065-066-070>072-040700-
SOUTHEAST WISCONSIN

CITY           SKY/WX    TMP DP  RH WIND       PRES   REMARKS
MILWAUKEE      CLOUDY    65  52  62 SW15G21   29.86F
6HR MIN TEMP:  63; 6HR MAX TEMP:  67;

WAUKESHA       CLOUDY    61  52  72 S8        29.86F
MILWAUKEE/TIMM CLOUDY    64  50  59 SW15G21   29.86S
RACINE         CLOUDY    66  52  60 SW14      29.88F
6HR MIN TEMP:  61; 6HR MAX TEMP:  67; 6HR PCP: TRACE;

BURLINGTON     CLOUDY    59  53  80 SW9       29.86F
6HR MIN TEMP:  56; 6HR MAX TEMP:  63;

KENOSHA        CLOUDY    66  53  63 SW15      29.87F
6HR MIN TEMP:  61; 6HR MAX TEMP:  66; 6HR PCP:  0.01;

FOND DU LAC    LGT RAIN  61  57  87 W13       29.90R
6HR MIN TEMP:  61; 6HR MAX TEMP:  72; 6HR PCP:  0.14;

SHEBOYGAN      TSTM      63  55  75 W10       29.88R
6HR MIN TEMP:  61; 6HR MAX TEMP:  72;

WEST BEND      LGT RAIN  63  52  67 W14G24    29.89R
JUNEAU         CLOUDY    60  57  87 NW10G17   29.91F
6HR MIN TEMP:  59; 6HR MAX TEMP:  69; 6HR PCP:  0.27;

$$

LSZ147-162-040700-
LAKE SUPERIOR

STATION/POSITION TIME  TEMP    WIND        PRES    WAVE
                       AIR SEA DIR/SP/G            HT/PER
                 (UTC) (F)     (DEG/KT/KT) (MB)    (FT/S)
W MID LAKE BUOY  0550   43 35  220/  8/  8 1013.2R   1/ 3
DEVILS ISLAND    0600   50     290/ 10/ 12 1014.1R
PORT WING        0500   49     280/  7/ 10 1013.2
SAXON HARBOR     0500   51     190/  1/  6 1012.5R
$$

LMZ867-665-643>646-040700-
LAKE MICHIGAN

STATION/POSITION TIME  TEMP    WIND        PRES    WAVE
                       AIR SEA DIR/SP/G            HT/PER


USA.gov is the U.S. government's official web portal to all federal, state and local government web resources and services.